NOAA 16 DEB

Satellite information

Favourite Embed

Satellite Type and Status

DEBRISIN ORBIT

Key statistics

Satellite NOAA 16 DEB at a glance.

Uptime

9054

Days in orbit

Revolutions

≈ 14.6

Per day

Orbit

SSO

Sun Synchronous Orbit

Inclination

98.8

Latest

Satellite identification and parameters

Extended collection of information and parameters for NOAA 16 DEB.

Object identification

Identified? True

Debris? True

Object name: NOAA 16 DEB

International designator: 2000-055HR

Object number (NORAD): 41348

Object ID (CCSDS): 41348

Country: UNITED STATES OF AMERICA (US)

Current information (Y/N): Y

RCS size: SMALL

Orbital parameters

Period: 98.893 minutes

Inclination: 98.7986 deg

SMA: 7083.879 km

Apoapsis: 720.896 km

Periapsis: 690.591 km

RAAN: 294.2163 deg

Eccentricy: 0.002139

Argument of periapsis: 43.7337 deg

Mean anomaly: 316.5549 deg

Mean motion: 14.56116426 rev/day

Mean motion (dot): 0.00015881 rev/day2

B* drag term: 0.003593 1/REarth

Two-line elements (TLE)

Creation date: July 5, 2025, 5:45 p.m.

Reference frame: TEME

Reference center: EARTH

Epoch: July 5, 2025, 12:17 p.m. UTC

TLE line 0: 0 NOAA 16 DEB

TLE line 1: 1 41348U 00055HR 25186.51216317 .00015881 00000-0 35930-2 0 9993

TLE line 2: 2 41348 98.7986 294.2163 0021390 43.7337 316.5549 14.56116426488984

Live tracking on map

Real-time ground track for satellite NOAA 16 DEB.

In-orbit conjunctions

A list of the most updated potential collisions computed for object NOAA 16 DEB.

Target Orbit TCA Probability of collision Miss distance Type
COSMOS 2441 SSO 2025-04-04 15:38:48 0.0005013912 265.0 (m) PAYLOAD
FENGYUN 1C DEB SSO 2024-11-14 11:21:19 0.0001847554 612.0 (m) DEBRIS

Associated space launch

The NOAA K, L and M POES satellites begin the fifth generation of improved environmental monitoring in support of NOAA missions. The instrument payload has significant improvements and additions/deletions. The instrument changes have effected the spacecraft subsystems and data formats.

NOAA 16 DEB was lifted into orbit during the mission ‘Titan II SLV | NOAA 16’, on board a Titan II SLV space rocket.

The launch took place on Sept. 21, 2000, 10:22 a.m. from Space Launch Complex 4W.

For more information about the launch, click the button.

Launch to space Titan II SLV | NOAA 16
Titan II SLV | NOAA 16

Agency: N/A

Status: Launch Successful

Launch date: Sept. 21, 2000, 10:22 a.m. UTC

Rocket: Titan II SLV

Launch pad: Space Launch Complex 4W

Location: Vandenberg SFB, CA, USA

...

Latest news about this satellite

There are no fresh news available about this satellite. Check back as we update our databases every day.


Newsletter sign-up

Weekly statistics, charts and insights to help you stay on top of the space industry.